Simultaneous Nadir Overpasses (SNOs) Predictions

Prediction of SNOs between NOAA-20 and AQUA Satellite Orbit:

Table of predicted SNOs for the next 14.0 days since TLE Epoch: 2/11/2023
Index Date (NOAA-20) Time (NOAA-20) Lat,Lon (NOAA-20) SZA (NOAA-20 ) Date (AQUA) Time (AQUA) Lat,Lon (AQUA) SZA (AQUA ) Distance(km) Time Diff (sec)
1 02/12/2023 03:15:48 -79.91,-148.39 74.14 02/12/2023 03:15:50 -79.91,-148.40 74.14 0.32 2
2 02/12/2023 04:04:23 80.96, 66.22 98.63 02/12/2023 04:03:10 81.60, 67.14 98.93 72.69 73
3 02/14/2023 17:51:17 -79.76, -8.69 74.73 02/14/2023 17:52:01 -79.77, -8.54 74.79 3.01 44
4 02/14/2023 18:41:53 80.01, 161.06 104.80 02/14/2023 18:41:19 80.01, 161.09 104.82 0.47 34
5 02/17/2023 09:17:18 79.97, -58.19 103.98 02/17/2023 09:17:25 79.97, -58.26 103.99 1.42 7
6 02/17/2023 10:07:58 -80.13, 110.80 76.34 02/17/2023 10:06:46 -80.13, 110.78 76.29 0.52 72
7 02/19/2023 23:52:44 79.89, 82.20 103.21 02/19/2023 23:53:30 79.89, 82.10 103.20 1.98 46
8 02/20/2023 00:43:24 -80.06,-108.81 77.12 02/20/2023 00:42:51 -80.05,-108.87 77.09 1.17 33
9 02/22/2023 15:18:50 -79.98, 31.52 77.91 02/22/2023 15:18:54 -79.98, 31.49 77.91 0.61 4



Historial Predications of SNOs between NOAA-20 and AQUA
